星链-6341 (STARLINK-6341 )

导读

STARLINK-6341是美国太空探索技术公司(SpaceX)星链互联网卫星星座中的一员,于2023年5月31日发射入轨。星链项目旨在搭建全球卫星互联网,为地面提供宽带互联网服务,该卫星的发射是SpaceX持续扩充星链星座部署、完善全球覆盖能力的一环,助力推进低轨卫星互联网组网进程。

Basic Information
目录编号:
56786
目录名称:
STARLINK-6341
国际标识:
2023-078V
轨道中心:
EARTH
卫星名称:
星链-6341
卫星全名:
星链-6341 (STARLINK-6341 )
卫星状态:
在轨 (已飞行1200 天)
发射日期:
2023-05-31 UTC
国别 :
美国 (US)
星等 :
--
This satellite is enrolled in the Space Conjunction Data Service (SCDS) and the current flight risk assessment level is: No High Risk
Orbit Information
数据来源 国际轨道数据 AOE轨道数据
星历时间 2026-09-12T10:14:42+0800
14小时前
查看轨道信息
2026-09-06T09:00:00+0800
6天前
查看轨道信息
半长轴 6950.162km 6950.178km
偏心率 0.0003232 0.0003622
轨道倾角 69.999° 69.999°
近地点辐角 259.702° 268.130°
升交点赤经 214.519° 229.776°
平近点角 100.377° 217.517°
近地点 569.778km 569.523km
远地点 574.272km 574.559km
周期 96.106分钟 96.107分钟
每日圈数 14.983402 14.98335
Detailed Information
固有亮度:
5
最大亮度:
2.5
卫星平台:
Starlink v1.5
覆盖范围:
全球
运营商:
太空探索技术公司
运营商所在国:
美国
制造商(研发单位):
太空探索技术公司
制造商所在国:
美国
使用方式:
暂无
Satellite Introduction
星链(Starlink)计划是由太空探索技术公司(SpaceX)提出的一个巨型低轨卫星互联网星座项目,计划在2019年至2024年间在太空搭建由约1.2万颗卫星组成的“星链”网络,其中1584颗将部署在地球上空550千米处的近地轨道,并从2020年开始工作。该卫星仍在工作。
2D Orbit Map
3D Orbit Map
Orbit Altitude Analysis Chart
Orbit Inclination Analysis Chart
Orbit Comprehensive Analysis Chart
View Comprehensive Chart
Conjunction Data List
Event ID Objects TCA Miss Dist (km) Collision Risk Probability Collision Risk Index (CRI) Action
CDM_260913-093304-874705-678624
2026-09-13T
09:33:15+0000
1.016 km
极远距离
2.605243E-5 中风险 0.63
CDM_260913-141405-678605-910824
BRO-12 (59108)
2026-09-13T
14:14:27+0000
1.385 km
极远距离
8.864698E-6 低风险 0.54
Miss Distance Evolution Trend with All Objects
Collision Probability Evolution Trend with All Objects